Year,Month,Day,Hour,Minute,Value (Times are PST for temperature in C)
2014,09,14,00,00,12.80
2014,09,14,00,01,12.70
2014,09,14,00,02,12.70
2014,09,14,00,03,12.70
2014,09,14,00,04,12.60
2014,09,14,00,05,12.60
2014,09,14,00,06,12.50
2014,09,14,00,07,12.50
2014,09,14,00,08,12.40
2014,09,14,00,09,12.40
2014,09,14,00,10,12.40
2014,09,14,00,11,12.40
2014,09,14,00,12,12.30
2014,09,14,00,13,12.30
2014,09,14,00,14,12.30
2014,09,14,00,15,12.30
2014,09,14,00,16,12.30
2014,09,14,00,17,12.30
2014,09,14,00,18,12.30
2014,09,14,00,19,12.30
2014,09,14,00,20,12.20
2014,09,14,00,21,12.20
2014,09,14,00,22,12.20
2014,09,14,00,23,12.10
2014,09,14,00,24,12.10
2014,09,14,00,25,12.10
2014,09,14,00,26,12.10
2014,09,14,00,27,12.00
2014,09,14,00,28,12.00
2014,09,14,00,29,12.00
2014,09,14,00,30,12.00
2014,09,14,00,31,12.00
2014,09,14,00,32,12.00
2014,09,14,00,33,11.90
2014,09,14,00,34,11.90
2014,09,14,00,35,11.90
2014,09,14,00,36,11.90
2014,09,14,00,37,11.80
2014,09,14,00,38,11.80
2014,09,14,00,39,11.80
2014,09,14,00,40,11.80
2014,09,14,00,41,11.80
2014,09,14,00,42,11.80
2014,09,14,00,43,11.80
2014,09,14,00,44,11.80
2014,09,14,00,45,11.70
2014,09,14,00,46,11.70
2014,09,14,00,47,11.70
2014,09,14,00,48,11.70
2014,09,14,00,49,11.70
2014,09,14,00,50,11.70
2014,09,14,00,51,11.70
2014,09,14,00,52,11.70
2014,09,14,00,53,11.70
2014,09,14,00,54,11.70
2014,09,14,00,55,11.60
2014,09,14,00,56,11.60
2014,09,14,00,57,11.60
2014,09,14,00,58,11.60
2014,09,14,00,59,11.60
2014,09,14,01,00,11.60
2014,09,14,01,01,11.60
2014,09,14,01,02,11.50
2014,09,14,01,03,11.50
2014,09,14,01,04,11.50
2014,09,14,01,05,11.50
2014,09,14,01,06,11.40
2014,09,14,01,07,11.40
2014,09,14,01,08,11.40
2014,09,14,01,09,11.30
2014,09,14,01,10,11.30
2014,09,14,01,11,11.30
2014,09,14,01,12,11.30
2014,09,14,01,13,11.20
2014,09,14,01,14,11.20
2014,09,14,01,15,11.20
2014,09,14,01,16,11.20
2014,09,14,01,17,11.20
2014,09,14,01,18,11.20
2014,09,14,01,19,11.20
2014,09,14,01,20,11.20
2014,09,14,01,21,11.20
2014,09,14,01,22,11.20
2014,09,14,01,23,11.10
2014,09,14,01,24,11.10
2014,09,14,01,25,11.10
2014,09,14,01,26,11.00
2014,09,14,01,27,11.00
2014,09,14,01,28,11.00
2014,09,14,01,29,11.00
2014,09,14,01,30,11.00
2014,09,14,01,31,11.00
2014,09,14,01,32,11.10
2014,09,14,01,33,11.10
2014,09,14,01,34,11.10
2014,09,14,01,35,11.20
2014,09,14,01,36,11.20
2014,09,14,01,37,11.20
2014,09,14,01,38,11.20
2014,09,14,01,39,11.20
2014,09,14,01,40,11.20
2014,09,14,01,41,11.20
2014,09,14,01,42,11.20
2014,09,14,01,43,11.10
2014,09,14,01,44,11.10
2014,09,14,01,45,11.10
2014,09,14,01,46,11.00
2014,09,14,01,47,11.00
2014,09,14,01,48,10.90
2014,09,14,01,49,10.90
2014,09,14,01,50,10.90
2014,09,14,01,51,11.00
2014,09,14,01,52,11.00
2014,09,14,01,53,11.10
2014,09,14,01,54,11.10
2014,09,14,01,55,11.20
2014,09,14,01,56,11.20
2014,09,14,01,57,11.30
2014,09,14,01,58,11.30
2014,09,14,01,59,11.40
2014,09,14,02,00,11.40
2014,09,14,02,01,11.40
2014,09,14,02,02,11.50
2014,09,14,02,03,11.40
2014,09,14,02,04,11.40
2014,09,14,02,05,11.40
2014,09,14,02,06,11.40
2014,09,14,02,07,11.40
2014,09,14,02,08,11.30
2014,09,14,02,09,11.30
2014,09,14,02,10,11.20
2014,09,14,02,11,11.20
2014,09,14,02,12,11.20
2014,09,14,02,13,11.10
2014,09,14,02,14,11.10
2014,09,14,02,15,11.20
2014,09,14,02,16,11.20
2014,09,14,02,17,11.20
2014,09,14,02,18,11.30
2014,09,14,02,19,11.40
2014,09,14,02,20,11.40
2014,09,14,02,21,11.50
2014,09,14,02,22,11.50
2014,09,14,02,23,11.60
2014,09,14,02,24,11.60
2014,09,14,02,25,11.60
2014,09,14,02,26,11.60
2014,09,14,02,27,11.70
2014,09,14,02,28,11.70
2014,09,14,02,29,11.80
2014,09,14,02,30,11.80
2014,09,14,02,31,11.90
2014,09,14,02,32,11.90
2014,09,14,02,33,12.00
2014,09,14,02,34,12.10
2014,09,14,02,35,12.10
2014,09,14,02,36,12.20
2014,09,14,02,37,12.30
2014,09,14,02,38,12.30
2014,09,14,02,39,12.40
2014,09,14,02,40,12.50
2014,09,14,02,41,12.50
2014,09,14,02,42,12.60
2014,09,14,02,43,12.60
2014,09,14,02,44,12.70
2014,09,14,02,45,12.70
2014,09,14,02,46,12.70
2014,09,14,02,47,12.70
2014,09,14,02,48,12.70
2014,09,14,02,49,12.70
2014,09,14,02,50,12.70
2014,09,14,02,51,12.60
2014,09,14,02,52,12.60
2014,09,14,02,53,12.60
2014,09,14,02,54,12.60
2014,09,14,02,55,12.60
2014,09,14,02,56,12.60
2014,09,14,02,57,12.60
2014,09,14,02,58,12.60
2014,09,14,02,59,12.60
2014,09,14,03,00,12.60
2014,09,14,03,01,12.60
2014,09,14,03,02,12.50
2014,09,14,03,03,12.50
2014,09,14,03,04,12.40
2014,09,14,03,05,12.40
2014,09,14,03,06,12.40
2014,09,14,03,07,12.30
2014,09,14,03,08,12.30
2014,09,14,03,09,12.20
2014,09,14,03,10,12.20
2014,09,14,03,11,12.20
2014,09,14,03,12,12.20
2014,09,14,03,13,12.20
2014,09,14,03,14,12.20
2014,09,14,03,15,12.20
2014,09,14,03,16,12.20
2014,09,14,03,17,12.20
2014,09,14,03,18,12.20
2014,09,14,03,19,12.10
2014,09,14,03,20,12.10
2014,09,14,03,21,12.10
2014,09,14,03,22,12.10
2014,09,14,03,23,12.10
2014,09,14,03,24,12.20
2014,09,14,03,25,12.20
2014,09,14,03,26,12.20
2014,09,14,03,27,12.30
2014,09,14,03,28,12.30
2014,09,14,03,29,12.30
2014,09,14,03,30,12.30
2014,09,14,03,31,12.30
2014,09,14,03,32,12.30
2014,09,14,03,33,12.30
2014,09,14,03,34,12.30
2014,09,14,03,35,12.30
2014,09,14,03,36,12.20
2014,09,14,03,37,12.20
2014,09,14,03,38,12.20
2014,09,14,03,39,12.10
2014,09,14,03,40,12.10
2014,09,14,03,41,12.10
2014,09,14,03,42,12.10
2014,09,14,03,43,12.00
2014,09,14,03,44,12.00
2014,09,14,03,45,12.00
2014,09,14,03,46,11.90
2014,09,14,03,47,11.90
2014,09,14,03,48,11.90
2014,09,14,03,49,11.90
2014,09,14,03,50,11.80
2014,09,14,03,51,11.80
2014,09,14,03,52,11.80
2014,09,14,03,53,11.80
2014,09,14,03,54,11.80
2014,09,14,03,55,11.80
2014,09,14,03,56,11.80
2014,09,14,03,57,11.80
2014,09,14,03,58,11.80
2014,09,14,03,59,11.80
2014,09,14,04,00,11.80
2014,09,14,04,01,11.70
2014,09,14,04,02,11.70
2014,09,14,04,03,11.70
2014,09,14,04,04,11.70
2014,09,14,04,05,11.70
2014,09,14,04,06,11.70
2014,09,14,04,07,11.70
2014,09,14,04,08,11.70
2014,09,14,04,09,11.70
2014,09,14,04,10,11.70
2014,09,14,04,11,11.70
2014,09,14,04,12,11.70
2014,09,14,04,13,11.70
2014,09,14,04,14,11.70
2014,09,14,04,15,11.70
2014,09,14,04,16,11.70
2014,09,14,04,17,11.60
2014,09,14,04,18,11.60
2014,09,14,04,19,11.60
2014,09,14,04,20,11.60
2014,09,14,04,21,11.60
2014,09,14,04,22,11.60
2014,09,14,04,23,11.70
2014,09,14,04,24,11.70
2014,09,14,04,25,11.70
2014,09,14,04,26,11.70
2014,09,14,04,27,11.70
2014,09,14,04,28,11.70
2014,09,14,04,29,11.70
2014,09,14,04,30,11.70
2014,09,14,04,31,11.70
2014,09,14,04,32,11.70
2014,09,14,04,33,11.70
2014,09,14,04,34,11.70
2014,09,14,04,35,11.70
2014,09,14,04,36,11.60
2014,09,14,04,37,11.60
2014,09,14,04,38,11.50
2014,09,14,04,39,11.50
2014,09,14,04,40,11.40
2014,09,14,04,41,11.30
2014,09,14,04,42,11.20
2014,09,14,04,43,11.20
2014,09,14,04,44,11.10
2014,09,14,04,45,11.00
2014,09,14,04,46,11.00
2014,09,14,04,47,11.00
2014,09,14,04,48,10.90
2014,09,14,04,49,10.90
2014,09,14,04,50,10.80
2014,09,14,04,51,10.80
2014,09,14,04,52,10.80
2014,09,14,04,53,10.70
2014,09,14,04,54,10.70
2014,09,14,04,55,10.70
2014,09,14,04,56,10.70
2014,09,14,04,57,10.70
2014,09,14,04,58,10.70
2014,09,14,04,59,10.70
2014,09,14,05,00,10.70
2014,09,14,05,01,10.70
2014,09,14,05,02,10.70
2014,09,14,05,03,10.70
2014,09,14,05,04,10.80
2014,09,14,05,05,10.80
2014,09,14,05,06,10.80
2014,09,14,05,07,10.80
2014,09,14,05,08,10.80
2014,09,14,05,09,10.80
2014,09,14,05,10,10.80
2014,09,14,05,11,10.80
2014,09,14,05,12,10.80
2014,09,14,05,13,10.80
2014,09,14,05,14,10.90
2014,09,14,05,15,10.90
2014,09,14,05,16,10.90
2014,09,14,05,17,10.90
2014,09,14,05,18,10.90
2014,09,14,05,19,11.00
2014,09,14,05,20,11.00
2014,09,14,05,21,11.00
2014,09,14,05,22,11.10
2014,09,14,05,23,11.10
2014,09,14,05,24,11.10
2014,09,14,05,25,11.10
2014,09,14,05,26,11.10
2014,09,14,05,27,11.10
2014,09,14,05,28,11.10
2014,09,14,05,29,11.20
2014,09,14,05,30,11.20
2014,09,14,05,31,11.20
2014,09,14,05,32,11.20
2014,09,14,05,33,11.20
2014,09,14,05,34,11.20
2014,09,14,05,35,11.20
2014,09,14,05,36,11.20
2014,09,14,05,37,11.20
2014,09,14,05,38,11.20
2014,09,14,05,39,11.20
2014,09,14,05,40,11.20
2014,09,14,05,41,11.20
2014,09,14,05,42,11.20
2014,09,14,05,43,11.20
2014,09,14,05,44,11.20
2014,09,14,05,45,11.20
2014,09,14,05,46,11.20
2014,09,14,05,47,11.20
2014,09,14,05,48,11.10
2014,09,14,05,49,11.10
2014,09,14,05,50,11.10
2014,09,14,05,51,11.10
2014,09,14,05,52,11.10
2014,09,14,05,53,11.10
2014,09,14,05,54,11.20
2014,09,14,05,55,11.20
2014,09,14,05,56,11.20
2014,09,14,05,57,11.20
2014,09,14,05,58,11.20
2014,09,14,05,59,11.20
2014,09,14,06,00,11.20
2014,09,14,06,01,11.20
2014,09,14,06,02,11.20
2014,09,14,06,03,11.20
2014,09,14,06,04,11.20
2014,09,14,06,05,11.20
2014,09,14,06,06,11.20
2014,09,14,06,07,11.20
2014,09,14,06,08,11.20
2014,09,14,06,09,11.20
2014,09,14,06,10,11.20
2014,09,14,06,11,11.30
2014,09,14,06,12,11.30
2014,09,14,06,13,11.30
2014,09,14,06,14,11.30
2014,09,14,06,15,11.20
2014,09,14,06,16,11.20
2014,09,14,06,17,11.20
2014,09,14,06,18,11.20
2014,09,14,06,19,11.20
2014,09,14,06,20,11.20
2014,09,14,06,21,11.20
2014,09,14,06,22,11.20
2014,09,14,06,23,11.20
2014,09,14,06,24,11.30
2014,09,14,06,25,11.30
2014,09,14,06,26,11.30
2014,09,14,06,27,11.30
2014,09,14,06,28,11.30
2014,09,14,06,29,11.30
2014,09,14,06,30,11.30
2014,09,14,06,31,11.30
2014,09,14,06,32,11.30
2014,09,14,06,33,11.20
2014,09,14,06,34,11.20
2014,09,14,06,35,11.20
2014,09,14,06,36,11.20
2014,09,14,06,37,11.10
2014,09,14,06,38,11.10
2014,09,14,06,39,11.10
2014,09,14,06,40,11.10
2014,09,14,06,41,11.10
2014,09,14,06,42,11.10
2014,09,14,06,43,11.10
2014,09,14,06,44,11.10
2014,09,14,06,45,11.10
2014,09,14,06,46,11.10
2014,09,14,06,47,11.10
2014,09,14,06,48,11.10
2014,09,14,06,49,11.10
2014,09,14,06,50,11.10
2014,09,14,06,51,11.10
2014,09,14,06,52,11.10
2014,09,14,06,53,11.10
2014,09,14,06,54,11.10
2014,09,14,06,55,11.10
2014,09,14,06,56,11.10
2014,09,14,06,57,11.00
2014,09,14,06,58,11.00
2014,09,14,06,59,11.00
2014,09,14,07,00,10.90
2014,09,14,07,01,10.90
2014,09,14,07,02,10.90
2014,09,14,07,03,10.90
2014,09,14,07,04,10.80
2014,09,14,07,05,10.80
2014,09,14,07,06,10.80
2014,09,14,07,07,10.80
2014,09,14,07,08,10.80
2014,09,14,07,09,10.80
2014,09,14,07,10,10.80
2014,09,14,07,11,10.80
2014,09,14,07,12,10.80
2014,09,14,07,13,10.80
2014,09,14,07,14,10.80
2014,09,14,07,15,10.80
2014,09,14,07,16,10.80
2014,09,14,07,17,10.80
2014,09,14,07,18,10.90
2014,09,14,07,19,10.90
2014,09,14,07,20,10.90
2014,09,14,07,21,11.00
2014,09,14,07,22,11.00
2014,09,14,07,23,11.10
2014,09,14,07,24,11.20
2014,09,14,07,25,11.20
2014,09,14,07,26,11.30
2014,09,14,07,27,11.30
2014,09,14,07,28,11.40
2014,09,14,07,29,11.40
2014,09,14,07,30,11.50
2014,09,14,07,31,11.50
2014,09,14,07,32,11.60
2014,09,14,07,33,11.70
2014,09,14,07,34,11.70
2014,09,14,07,35,11.80
2014,09,14,07,36,11.80
2014,09,14,07,37,11.90
2014,09,14,07,38,12.00
2014,09,14,07,39,12.00
2014,09,14,07,40,12.10
2014,09,14,07,41,12.10
2014,09,14,07,42,12.20
2014,09,14,07,43,12.20
2014,09,14,07,44,12.20
2014,09,14,07,45,12.30
2014,09,14,07,46,12.30
2014,09,14,07,47,12.40
2014,09,14,07,48,12.40
2014,09,14,07,49,12.40
2014,09,14,07,50,12.50
2014,09,14,07,51,12.50
2014,09,14,07,52,12.60
2014,09,14,07,53,12.60
2014,09,14,07,54,12.60
2014,09,14,07,55,12.70
2014,09,14,07,56,12.70
2014,09,14,07,57,12.80
2014,09,14,07,58,12.80
2014,09,14,07,59,12.80
2014,09,14,08,00,12.90
2014,09,14,08,01,12.90
2014,09,14,08,02,13.00
2014,09,14,08,03,13.00
2014,09,14,08,04,13.10
2014,09,14,08,05,13.10
2014,09,14,08,06,13.10
2014,09,14,08,07,13.20
2014,09,14,08,08,13.20
2014,09,14,08,09,13.30
2014,09,14,08,10,13.30
2014,09,14,08,11,13.30
2014,09,14,08,12,13.40
2014,09,14,08,13,13.40
2014,09,14,08,14,13.50
2014,09,14,08,15,13.50
2014,09,14,08,16,13.60
2014,09,14,08,17,13.60
2014,09,14,08,18,13.70
2014,09,14,08,19,13.70
2014,09,14,08,20,13.80
2014,09,14,08,21,13.80
2014,09,14,08,22,13.90
2014,09,14,08,23,13.90
2014,09,14,08,24,14.00
2014,09,14,08,25,14.10
2014,09,14,08,26,14.10
2014,09,14,08,27,14.20
2014,09,14,08,28,14.30
2014,09,14,08,29,14.30
2014,09,14,08,30,14.40
2014,09,14,08,31,14.50
2014,09,14,08,32,14.70
2014,09,14,08,33,14.90
2014,09,14,08,34,15.10
2014,09,14,08,35,15.40
2014,09,14,08,36,15.60
2014,09,14,08,37,15.70
2014,09,14,08,38,15.90
2014,09,14,08,39,16.10
2014,09,14,08,40,16.30
2014,09,14,08,41,16.40
2014,09,14,08,42,16.50
2014,09,14,08,43,16.60
2014,09,14,08,44,16.60
2014,09,14,08,45,16.70
2014,09,14,08,46,16.80
2014,09,14,08,47,16.90
2014,09,14,08,48,16.90
2014,09,14,08,49,17.00
2014,09,14,08,50,17.20
2014,09,14,08,51,17.30
2014,09,14,08,52,17.30
2014,09,14,08,53,17.40
2014,09,14,08,54,17.60
2014,09,14,08,55,17.70
2014,09,14,08,56,17.90
2014,09,14,08,57,18.00
2014,09,14,08,58,18.10
2014,09,14,08,59,18.20
2014,09,14,09,00,18.30
2014,09,14,09,01,18.30
2014,09,14,09,02,18.40
2014,09,14,09,03,18.40
2014,09,14,09,04,18.40
2014,09,14,09,05,18.40
2014,09,14,09,06,18.40
2014,09,14,09,07,18.30
2014,09,14,09,08,18.10
2014,09,14,09,09,18.00
2014,09,14,09,10,17.80
2014,09,14,09,11,17.70
2014,09,14,09,12,17.50
2014,09,14,09,13,17.40
2014,09,14,09,14,17.30
2014,09,14,09,15,17.20
2014,09,14,09,16,17.10
2014,09,14,09,17,17.00
2014,09,14,09,18,16.90
2014,09,14,09,19,16.80
2014,09,14,09,20,16.70
2014,09,14,09,21,16.70
2014,09,14,09,22,16.60
2014,09,14,09,23,16.60
2014,09,14,09,24,16.50
2014,09,14,09,25,16.50
2014,09,14,09,26,16.50
2014,09,14,09,27,16.50
2014,09,14,09,28,16.50
2014,09,14,09,29,16.60
2014,09,14,09,30,16.60
2014,09,14,09,31,16.60
2014,09,14,09,32,16.60
2014,09,14,09,33,16.60
2014,09,14,09,34,16.60
2014,09,14,09,35,16.60
2014,09,14,09,36,16.60
2014,09,14,09,37,16.60
2014,09,14,09,38,16.60
2014,09,14,09,39,16.60
2014,09,14,09,40,16.60
2014,09,14,09,41,16.60
2014,09,14,09,42,16.60
2014,09,14,09,43,16.60
2014,09,14,09,44,16.60
2014,09,14,09,45,16.70
2014,09,14,09,46,16.70
2014,09,14,09,47,16.80
2014,09,14,09,48,16.80
2014,09,14,09,49,16.90
2014,09,14,09,50,17.00
2014,09,14,09,51,17.00
2014,09,14,09,52,17.10
2014,09,14,09,53,17.20
2014,09,14,09,54,17.30
2014,09,14,09,55,17.30
2014,09,14,09,56,17.30
2014,09,14,09,57,17.40
2014,09,14,09,58,17.40
2014,09,14,09,59,17.50
2014,09,14,10,00,17.50
2014,09,14,10,01,17.60
2014,09,14,10,02,17.70
2014,09,14,10,03,17.80
2014,09,14,10,04,17.80
2014,09,14,10,05,17.90
2014,09,14,10,06,18.00
2014,09,14,10,07,18.20
2014,09,14,10,08,18.30
2014,09,14,10,09,18.40
2014,09,14,10,10,18.50
2014,09,14,10,11,18.70
2014,09,14,10,12,18.80
2014,09,14,10,13,18.80
2014,09,14,10,14,18.90
2014,09,14,10,15,19.00
2014,09,14,10,16,19.00
2014,09,14,10,17,19.10
2014,09,14,10,18,19.20
2014,09,14,10,19,19.20
2014,09,14,10,20,19.20
2014,09,14,10,21,19.30
2014,09,14,10,22,19.30
2014,09,14,10,23,19.30
2014,09,14,10,24,19.30
2014,09,14,10,25,19.30
2014,09,14,10,26,19.30
2014,09,14,10,27,19.40
2014,09,14,10,28,19.40
2014,09,14,10,29,19.50
2014,09,14,10,30,19.50
2014,09,14,10,31,19.50
2014,09,14,10,32,19.50
2014,09,14,10,33,19.50
2014,09,14,10,34,19.50
2014,09,14,10,35,19.50
2014,09,14,10,36,19.40
2014,09,14,10,37,19.40
2014,09,14,10,38,19.50
2014,09,14,10,39,19.50
2014,09,14,10,40,19.60
2014,09,14,10,41,19.60
2014,09,14,10,42,19.60
2014,09,14,10,43,19.60
2014,09,14,10,44,19.60
2014,09,14,10,45,19.70
2014,09,14,10,46,19.70
2014,09,14,10,47,19.70
2014,09,14,10,48,19.80
2014,09,14,10,49,19.80
2014,09,14,10,50,19.90
2014,09,14,10,51,20.00
2014,09,14,10,52,20.00
2014,09,14,10,53,20.10
2014,09,14,10,54,20.10
2014,09,14,10,55,20.20
2014,09,14,10,56,20.20
2014,09,14,10,57,20.20
2014,09,14,10,58,20.30
2014,09,14,10,59,20.30
2014,09,14,11,00,20.40
2014,09,14,11,01,20.40
2014,09,14,11,02,20.50
2014,09,14,11,03,20.70
2014,09,14,11,04,20.80
2014,09,14,11,05,20.90
2014,09,14,11,06,21.00
2014,09,14,11,07,21.10
2014,09,14,11,08,21.20
2014,09,14,11,09,21.30
2014,09,14,11,10,21.30
2014,09,14,11,11,21.30
2014,09,14,11,12,21.40
2014,09,14,11,13,21.40
2014,09,14,11,14,21.60
2014,09,14,11,15,21.70
2014,09,14,11,16,21.90
2014,09,14,11,17,21.90
2014,09,14,11,18,21.90
2014,09,14,11,19,22.00
2014,09,14,11,20,22.10
2014,09,14,11,21,22.20
2014,09,14,11,22,22.20
2014,09,14,11,23,22.20
2014,09,14,11,24,22.20
2014,09,14,11,25,22.20
2014,09,14,11,26,22.30
2014,09,14,11,27,22.50
2014,09,14,11,28,22.60
2014,09,14,11,29,22.60
2014,09,14,11,30,22.70
2014,09,14,11,31,22.60
2014,09,14,11,32,22.60
2014,09,14,11,33,22.60
2014,09,14,11,34,22.60
2014,09,14,11,35,22.70
2014,09,14,11,36,22.80
2014,09,14,11,37,23.00
2014,09,14,11,38,23.20
2014,09,14,11,39,23.30
2014,09,14,11,40,23.40
2014,09,14,11,41,23.40
2014,09,14,11,42,23.40
2014,09,14,11,43,23.30
2014,09,14,11,44,23.20
2014,09,14,11,45,23.20
2014,09,14,11,46,23.20
2014,09,14,11,47,23.20
2014,09,14,11,48,23.20
2014,09,14,11,49,23.20
2014,09,14,11,50,23.30
2014,09,14,11,51,23.20
2014,09,14,11,52,23.10
2014,09,14,11,53,23.10
2014,09,14,11,54,23.10
2014,09,14,11,55,23.20
2014,09,14,11,56,23.20
2014,09,14,11,57,23.30
2014,09,14,11,58,23.30
2014,09,14,11,59,23.20
2014,09,14,12,00,23.10
2014,09,14,12,01,23.00
2014,09,14,12,02,23.00
2014,09,14,12,03,23.10
2014,09,14,12,04,23.30
2014,09,14,12,05,23.40
2014,09,14,12,06,23.50
2014,09,14,12,07,23.70
2014,09,14,12,08,23.80
2014,09,14,12,09,23.80
2014,09,14,12,10,23.90
2014,09,14,12,11,23.90
2014,09,14,12,12,23.90
2014,09,14,12,13,23.90
2014,09,14,12,14,24.00
2014,09,14,12,15,24.10
2014,09,14,12,16,24.10
2014,09,14,12,17,24.20
2014,09,14,12,18,24.30
2014,09,14,12,19,24.30
2014,09,14,12,20,24.40
2014,09,14,12,21,24.50
2014,09,14,12,22,24.50
2014,09,14,12,23,24.40
2014,09,14,12,24,24.30
2014,09,14,12,25,24.30
2014,09,14,12,26,24.30
2014,09,14,12,27,24.30
2014,09,14,12,28,24.30
2014,09,14,12,29,24.30
2014,09,14,12,30,24.30
2014,09,14,12,31,24.30
2014,09,14,12,32,24.30
2014,09,14,12,33,24.20
2014,09,14,12,34,24.10
2014,09,14,12,35,24.10
2014,09,14,12,36,23.90
2014,09,14,12,37,23.90
2014,09,14,12,38,24.00
2014,09,14,12,39,24.10
2014,09,14,12,40,24.30
2014,09,14,12,41,24.40
2014,09,14,12,42,24.40
2014,09,14,12,43,24.40
2014,09,14,12,44,24.40
2014,09,14,12,45,24.40
2014,09,14,12,46,24.50
2014,09,14,12,47,24.50
2014,09,14,12,48,24.50
2014,09,14,12,49,24.40
2014,09,14,12,50,24.40
2014,09,14,12,51,24.40
2014,09,14,12,52,24.40
2014,09,14,12,53,24.40
2014,09,14,12,54,24.40
2014,09,14,12,55,24.40
2014,09,14,12,56,24.40
2014,09,14,12,57,24.30
2014,09,14,12,58,24.30
2014,09,14,12,59,24.40
2014,09,14,13,00,24.40
2014,09,14,13,01,24.40
2014,09,14,13,02,24.50
2014,09,14,13,03,24.60
2014,09,14,13,04,24.50
2014,09,14,13,05,24.30
2014,09,14,13,06,24.20
2014,09,14,13,07,24.10
2014,09,14,13,08,24.10
2014,09,14,13,09,24.10
2014,09,14,13,10,24.10
2014,09,14,13,11,24.10
2014,09,14,13,12,24.00
2014,09,14,13,13,23.90
2014,09,14,13,14,23.80
2014,09,14,13,15,23.80
2014,09,14,13,16,23.80
2014,09,14,13,17,23.80
2014,09,14,13,18,23.90
2014,09,14,13,19,23.90
2014,09,14,13,20,23.90
2014,09,14,13,21,23.90
2014,09,14,13,22,23.90
2014,09,14,13,23,24.00
2014,09,14,13,24,24.10
2014,09,14,13,25,24.10
2014,09,14,13,26,24.10
2014,09,14,13,27,24.00
2014,09,14,13,28,24.00
2014,09,14,13,29,24.20
2014,09,14,13,30,24.30
2014,09,14,13,31,24.30
2014,09,14,13,32,24.30
2014,09,14,13,33,24.40
2014,09,14,13,34,24.20
2014,09,14,13,35,24.00
2014,09,14,13,36,23.90
2014,09,14,13,37,23.90
2014,09,14,13,38,23.90
2014,09,14,13,39,24.00
2014,09,14,13,40,24.10
2014,09,14,13,41,24.20
2014,09,14,13,42,24.30
2014,09,14,13,43,24.50
2014,09,14,13,44,24.60
2014,09,14,13,45,24.70
2014,09,14,13,46,24.70
2014,09,14,13,47,24.70
2014,09,14,13,48,24.70
2014,09,14,13,49,24.50
2014,09,14,13,50,24.40
2014,09,14,13,51,24.20
2014,09,14,13,52,24.00
2014,09,14,13,53,23.90
2014,09,14,13,54,23.90
2014,09,14,13,55,23.90
2014,09,14,13,56,23.90
2014,09,14,13,57,23.90
2014,09,14,13,58,23.90
2014,09,14,13,59,23.90
2014,09,14,14,00,23.90
2014,09,14,14,01,23.90
2014,09,14,14,02,23.90
2014,09,14,14,03,23.90
2014,09,14,14,04,24.00
2014,09,14,14,05,24.00
2014,09,14,14,06,23.90
2014,09,14,14,07,24.00
2014,09,14,14,08,24.20
2014,09,14,14,09,24.40
2014,09,14,14,10,24.60
2014,09,14,14,11,24.70
2014,09,14,14,12,24.90
2014,09,14,14,13,25.00
2014,09,14,14,14,25.20
2014,09,14,14,15,25.20
2014,09,14,14,16,25.30
2014,09,14,14,17,25.20
2014,09,14,14,18,25.00
2014,09,14,14,19,24.90
2014,09,14,14,20,24.90
2014,09,14,14,21,24.90
2014,09,14,14,22,24.80
2014,09,14,14,23,24.80
2014,09,14,14,24,24.70
2014,09,14,14,25,24.60
2014,09,14,14,26,24.50
2014,09,14,14,27,24.60
2014,09,14,14,28,24.70
2014,09,14,14,29,24.70
2014,09,14,14,30,24.80
2014,09,14,14,31,24.80
2014,09,14,14,32,24.80
2014,09,14,14,33,24.80
2014,09,14,14,34,24.70
2014,09,14,14,35,24.70
2014,09,14,14,36,24.70
2014,09,14,14,37,24.70
2014,09,14,14,38,24.70
2014,09,14,14,39,24.60
2014,09,14,14,40,24.50
2014,09,14,14,41,24.50
2014,09,14,14,42,24.40
2014,09,14,14,43,24.40
2014,09,14,14,44,24.40
2014,09,14,14,45,24.40
2014,09,14,14,46,24.50
2014,09,14,14,47,24.50
2014,09,14,14,48,24.40
2014,09,14,14,49,24.50
2014,09,14,14,50,24.60
2014,09,14,14,51,24.70
2014,09,14,14,52,24.90
2014,09,14,14,53,24.90
2014,09,14,14,54,24.80
2014,09,14,14,55,24.70
2014,09,14,14,56,24.60
2014,09,14,14,57,24.50
2014,09,14,14,58,24.50
2014,09,14,14,59,24.50
2014,09,14,15,00,24.50
2014,09,14,15,01,24.60
2014,09,14,15,02,24.60
2014,09,14,15,03,24.60
2014,09,14,15,04,24.60
2014,09,14,15,05,24.60
2014,09,14,15,06,24.60
2014,09,14,15,07,24.60
2014,09,14,15,08,24.70
2014,09,14,15,09,24.70
2014,09,14,15,10,24.70
2014,09,14,15,11,24.70
2014,09,14,15,12,24.70
2014,09,14,15,13,24.80
2014,09,14,15,14,24.90
2014,09,14,15,15,24.90
2014,09,14,15,16,24.90
2014,09,14,15,17,24.90
2014,09,14,15,18,24.80
2014,09,14,15,19,24.80
2014,09,14,15,20,24.80
2014,09,14,15,21,24.90
2014,09,14,15,22,25.00
2014,09,14,15,23,25.10
2014,09,14,15,24,25.00
2014,09,14,15,25,25.00
2014,09,14,15,26,25.10
2014,09,14,15,27,25.10
2014,09,14,15,28,25.00
2014,09,14,15,29,24.90
2014,09,14,15,30,24.80
2014,09,14,15,31,24.70
2014,09,14,15,32,24.70
2014,09,14,15,33,24.80
2014,09,14,15,34,24.90
2014,09,14,15,35,24.90
2014,09,14,15,36,24.90
2014,09,14,15,37,24.90
2014,09,14,15,38,24.80
2014,09,14,15,39,24.60
2014,09,14,15,40,24.60
2014,09,14,15,41,24.60
2014,09,14,15,42,24.60
2014,09,14,15,43,24.80
2014,09,14,15,44,25.00
2014,09,14,15,45,25.10
2014,09,14,15,46,25.20
2014,09,14,15,47,25.20
2014,09,14,15,48,25.20
2014,09,14,15,49,25.10
2014,09,14,15,50,25.00
2014,09,14,15,51,24.90
2014,09,14,15,52,24.90
2014,09,14,15,53,24.90
2014,09,14,15,54,25.00
2014,09,14,15,55,25.00
2014,09,14,15,56,25.10
2014,09,14,15,57,25.10
2014,09,14,15,58,25.10
2014,09,14,15,59,25.10
2014,09,14,16,00,25.00
2014,09,14,16,01,25.00
2014,09,14,16,02,25.00
2014,09,14,16,03,25.10
2014,09,14,16,04,25.00
2014,09,14,16,05,24.90
2014,09,14,16,06,24.80
2014,09,14,16,07,24.70
2014,09,14,16,08,24.70
2014,09,14,16,09,24.70
2014,09,14,16,10,24.70
2014,09,14,16,11,24.60
2014,09,14,16,12,24.50
2014,09,14,16,13,24.40
2014,09,14,16,14,24.40
2014,09,14,16,15,24.40
2014,09,14,16,16,24.30
2014,09,14,16,17,24.30
2014,09,14,16,18,24.30
2014,09,14,16,19,24.30
2014,09,14,16,20,24.40
2014,09,14,16,21,24.60
2014,09,14,16,22,24.70
2014,09,14,16,23,24.80
2014,09,14,16,24,24.90
2014,09,14,16,25,24.90
2014,09,14,16,26,25.00
2014,09,14,16,27,25.10
2014,09,14,16,28,25.10
2014,09,14,16,29,25.10
2014,09,14,16,30,25.20
2014,09,14,16,31,25.10
2014,09,14,16,32,25.00
2014,09,14,16,33,24.90
2014,09,14,16,34,24.80
2014,09,14,16,35,24.80
2014,09,14,16,36,24.70
2014,09,14,16,37,24.70
2014,09,14,16,38,24.80
2014,09,14,16,39,24.80
2014,09,14,16,40,24.80
2014,09,14,16,41,24.80
2014,09,14,16,42,24.80
2014,09,14,16,43,24.80
2014,09,14,16,44,24.80
2014,09,14,16,45,24.90
2014,09,14,16,46,24.90
2014,09,14,16,47,25.00
2014,09,14,16,48,25.00
2014,09,14,16,49,25.10
2014,09,14,16,50,25.20
2014,09,14,16,51,25.30
2014,09,14,16,52,25.40
2014,09,14,16,53,25.40
2014,09,14,16,54,25.40
2014,09,14,16,55,25.40
2014,09,14,16,56,25.40
2014,09,14,16,57,25.30
2014,09,14,16,58,25.30
2014,09,14,16,59,25.30
2014,09,14,17,00,25.40
2014,09,14,17,01,25.30
2014,09,14,17,02,25.30
2014,09,14,17,03,25.30
2014,09,14,17,04,25.30
2014,09,14,17,05,25.30
2014,09,14,17,06,25.30
2014,09,14,17,07,25.30
2014,09,14,17,08,25.30
2014,09,14,17,09,25.30
2014,09,14,17,10,25.30
2014,09,14,17,11,25.30
2014,09,14,17,12,25.30
2014,09,14,17,13,25.20
2014,09,14,17,14,25.20
2014,09,14,17,15,25.10
2014,09,14,17,16,25.10
2014,09,14,17,17,25.10
2014,09,14,17,18,25.10
2014,09,14,17,19,25.10